sat.trackr.live / text

‹ back to catalog

DJIBOUTI-1B

NORAD 62402 · 2024-247AB

PAYLOAD ACTIVE UNKNOWN

§ Identity

Operator
Country
DJI
Launch date
2024-12-21
Launch site
AFWTR
Launch vehicle
Mass (kg)
RCS (m²)

External: N2YO · Heavens-Above · Gunter

§ Orbital elements

Epoch: 2026-05-25T01:19:22.729152Z

Period
92.71 min
Inclination
44.9726°
Eccentricity
0.0007106
Mean motion
15.53268494 rev/d
Perigee alt
402.4 km
Apogee alt
412.0 km
Semi-major
6,785.3 km
B*
7.4179e-4
RAAN
15.4612°
Arg perigee
188.4739°
Mean anomaly
171.6034°
Rev number
7,993

§ Raw data

DJIBOUTI-1B1 62402U 24247AB  26145.05512418  .00047793  00000+0  74179-3 0  99972 62402  44.9726  15.4612 0007106 188.4739 171.6034 15.53268494 79938

JSON: /api/v1/satellites/62402 · /tle

For live sub-satellite position, see the globe view (requires WebGL).

§ Visibility from observer

Set your observer location to see the next 7 days of passes ≥ 10°. The values pass through the URL so the page stays shareable.

No JS? Fill the form by hand. The geolocation button needs JavaScript.

§ Radio — SatNOGS DB

ModeDescriptionDownlinkUplink
GMSK Modu U - GMSK2k4 - Transmitter 401.800 MHz
GMSK Mode U - GMSK9k6 - Transmitter (inactive) 401.800 MHz

2 transmitters · refreshed weekly from db.satnogs.org